Location: Godiavel Galaoual
(15.2485°N, 12.6604°W)
Time: 02:43:43
(UTC+00:00)

N. Korean satellite - Pass Details

Date: 04 December 2021
Orbit: 447 x 491 km, 97.3° (Epoch: 22 January)

Event Time Altitude Azimuth Distance (km) Brightness Sun altitude
Rises 06:30:16 0° 347° (NNW) 2,437 9.8 -8.1°
Reaches altitude 10° 06:32:47 10° 326° (NW) 1,567 8.7 -7.5°
Maximum altitude 06:35:01 17° 284° (WNW) 1,206 7.9 -7.0°
Drops below altitude 10° 06:37:17 10° 241° (WSW) 1,572 8.8 -6.5°
Sets 06:39:49 0° 221° (SW) 2,449 9.9 -6.0°
